• In United Kingdom
  • List of Countries
  • For 7 days
  • Water Temperature
  • Satellite Maps
  • Weather Map
  • Weather Widgets
  • user-avatar
    Login

    Hourly Weather Chester

    Today, 19 September, Wednesday

    Time Temperature Precipitation Wind Pressure Humidity
    00:00 +15°C° 0.2 mm 5 mps 754 mmHg 89%
    01:00 +14°C° 0 mm 5 mps 754 mmHg 89%
    02:00 +14°C° 0 mm 5 mps 754 mmHg 90%
    03:00 +13°C° 0 mm 5 mps 754 mmHg 91%
    04:00 +13°C° 0 mm 5 mps 754 mmHg 91%
    05:00 +13°C° 0 mm 5 mps 754 mmHg 91%
    06:00 +13°C° 0 mm 6 mps 753 mmHg 91%
    07:00 +14°C° 0 mm 7 mps 753 mmHg 88%
    08:00 +15°C° 0 mm 9 mps 753 mmHg 85%
    09:00 +16°C° 0 mm 10 mps 752 mmHg 81%
    10:00 +16°C° 0.2 mm 10 mps 752 mmHg 81%
    11:00 +17°C° 0.2 mm 11 mps 752 mmHg 80%
    12:00 +17°C° 0.2 mm 11 mps 752 mmHg 80%
    13:00 +17°C° 0.2 mm 11 mps 752 mmHg 76%
    14:00 +16°C° 0.2 mm 10 mps 753 mmHg 73%
    15:00 +15°C° 0.2 mm 9 mps 753 mmHg 69%
    16:00 +13°C° 0 mm 9 mps 754 mmHg 68%
    17:00 +13°C° 0 mm 8 mps 755 mmHg 68%
    18:00 +12°C° 0 mm 7 mps 756 mmHg 68%
    19:00 +11°C° 0 mm 7 mps 756 mmHg 68%
    20:00 +11°C° 0 mm 6 mps 757 mmHg 68%
    21:00 +11°C° 0 mm 6 mps 757 mmHg 68%
    22:00 +10°C° 0.1 mm 6 mps 757 mmHg 72%
    23:00 +10°C° 0.1 mm 6 mps 757 mmHg 76%

    Tomorrow, 20 September, Thursday

    Time Temperature Precipitation Wind Pressure Humidity
    00:00 +10°C° 0.1 mm 6 mps 757 mmHg 80%
    01:00 +10°C° 1 mm 5 mps 757 mmHg 84%
    02:00 +11°C° 1 mm 4 mps 757 mmHg 88%
    03:00 +10°C° 1 mm 3 mps 756 mmHg 92%
    04:00 +10°C° 0.5 mm 3 mps 756 mmHg 92%
    05:00 +10°C° 0.5 mm 2 mps 756 mmHg 92%
    06:00 +10°C° 0.5 mm 2 mps 756 mmHg 92%
    07:00 +12°C° 0 mm 2 mps 756 mmHg 88%
    08:00 +13°C° 0 mm 2 mps 756 mmHg 85%
    09:00 +13°C° 0 mm 2 mps 756 mmHg 82%
    10:00 +13°C° 0.4 mm 2 mps 756 mmHg 81%
    11:00 +13°C° 0.4 mm 1 mps 756 mmHg 81%
    12:00 +13°C° 0.4 mm 1 mps 755 mmHg 80%
    13:00 +13°C° 1.1 mm 1 mps 755 mmHg 83%
    14:00 +13°C° 1.1 mm 1 mps 754 mmHg 86%
    15:00 +12°C° 1.1 mm 1 mps 753 mmHg 89%
    16:00 +12°C° 2.5 mm 2 mps 752 mmHg 90%
    17:00 +11°C° 2.5 mm 3 mps 751 mmHg 92%
    18:00 +11°C° 2.5 mm 4 mps 750 mmHg 93%
    19:00 +11°C° 2.1 mm 4 mps 749 mmHg 94%
    20:00 +12°C° 2.1 mm 4 mps 747 mmHg 94%
    21:00 +12°C° 2.1 mm 4 mps 746 mmHg 94%
    22:00 +13°C° 0.7 mm 6 mps 745 mmHg 93%
    23:00 +14°C° 0.7 mm 7 mps 744 mmHg 93%

    Day after tomorrow, 21 September, Friday

    Time Temperature Precipitation Wind Pressure Humidity
    00:00 +15°C° 0.7 mm 9 mps 744 mmHg 92%
    01:00 +12°C° 0.2 mm 9 mps 745 mmHg 89%
    02:00 +10°C° 0.2 mm 9 mps 746 mmHg 87%
    03:00 +7°C° 0.2 mm 9 mps 747 mmHg 85%
    04:00 +7°C° 0.3 mm 8 mps 748 mmHg 85%
    05:00 +7°C° 0.3 mm 8 mps 749 mmHg 84%
    06:00 +8°C° 0.3 mm 7 mps 750 mmHg 84%
    07:00 +7°C° 0.2 mm 8 mps 750 mmHg 80%
    08:00 +9°C° 0.2 mm 8 mps 751 mmHg 75%
    09:00 +10°C° 0.2 mm 9 mps 751 mmHg 70%
    10:00 +9°C° 0.3 mm 10 mps 752 mmHg 68%
    11:00 +11°C° 0.3 mm 11 mps 752 mmHg 66%
    12:00 +10°C° 0.3 mm 12 mps 752 mmHg 64%
    13:00 +11°C° 0.5 mm 11 mps 753 mmHg 66%
    14:00 +11°C° 0.5 mm 11 mps 754 mmHg 68%
    15:00 +11°C° 0.5 mm 11 mps 754 mmHg 70%
    16:00 +11°C° 0.3 mm 9 mps 755 mmHg 71%
    17:00 +10°C° 0.3 mm 8 mps 756 mmHg 73%
    18:00 +10°C° 0.3 mm 7 mps 757 mmHg 75%
    19:00 +9°C° 0.1 mm 7 mps 758 mmHg 76%
    20:00 +9°C° 0.1 mm 7 mps 759 mmHg 76%
    21:00 +9°C° 0.1 mm 6 mps 759 mmHg 76%
    22:00 +8°C° 0 mm 6 mps 760 mmHg 77%
    23:00 +8°C° 0 mm 6 mps 760 mmHg 78%

    22 September, Saturday

    Time Temperature Precipitation Wind Pressure Humidity
    00:00 +8°C° 0 mm 6 mps 761 mmHg 79%
    01:00 +8°C° 0 mm 6 mps 761 mmHg 80%
    02:00 +7°C° 0 mm 6 mps 762 mmHg 80%
    03:00 +7°C° 0 mm 5 mps 762 mmHg 81%
    04:00 +7°C° 0 mm 5 mps 762 mmHg 82%
    05:00 +7°C° 0 mm 5 mps 763 mmHg 82%
    06:00 +7°C° 0 mm 4 mps 763 mmHg 83%
    07:00 +8°C° 0 mm 4 mps 763 mmHg 78%
    08:00 +9°C° 0 mm 5 mps 764 mmHg 74%
    09:00 +10°C° 0 mm 5 mps 764 mmHg 69%
    10:00 +12°C° 0 mm 4 mps 764 mmHg 65%
    11:00 +13°C° 0 mm 4 mps 764 mmHg 62%
    12:00 +14°C° 0 mm 4 mps 764 mmHg 58%
    13:00 +14°C° 0 mm 3 mps 763 mmHg 58%
    14:00 +14°C° 0 mm 3 mps 763 mmHg 58%
    15:00 +15°C° 0 mm 2 mps 762 mmHg 58%
    16:00 +14°C° 0.2 mm 2 mps 762 mmHg 65%
    17:00 +13°C° 0.2 mm 2 mps 762 mmHg 71%
    18:00 +12°C° 0.2 mm 2 mps 761 mmHg 77%
    19:00 +10°C° 1.3 mm 3 mps 760 mmHg 82%
    20:00 +9°C° 1.3 mm 5 mps 758 mmHg 87%
    21:00 +9°C° 1.3 mm 6 mps 757 mmHg 92%
    22:00 +9°C° 5.6 mm 7 mps 754 mmHg 92%
    23:00 +8°C° 5.6 mm 9 mps 751 mmHg 92%

    23 September, Sunday

    Time Temperature Precipitation Wind Pressure Humidity
    00:00 +8°C° 5.6 mm 10 mps 749 mmHg 93%
    01:00 +11°C° 9 mm 10 mps 746 mmHg 93%
    02:00 +12°C° 9 mm 10 mps 744 mmHg 93%
    03:00 +15°C° 9 mm 9 mps 741 mmHg 94%
    04:00 +15°C° 2.9 mm 9 mps 738 mmHg 93%
    05:00 +15°C° 2.9 mm 8 mps 735 mmHg 92%
    06:00 +14°C° 2.9 mm 7 mps 732 mmHg 91%
    07:00 +14°C° 0.8 mm 7 mps 732 mmHg 91%
    08:00 +14°C° 0.8 mm 6 mps 731 mmHg 92%
    09:00 +13°C° 0.8 mm 5 mps 731 mmHg 92%
    10:00 +11°C° 1 mm 9 mps 733 mmHg 89%
    11:00 +9°C° 1 mm 13 mps 736 mmHg 85%
    12:00 +7°C° 1 mm 18 mps 739 mmHg 82%
    13:00 +7°C° 1.1 mm 17 mps 742 mmHg 81%
    14:00 +6°C° 1.1 mm 16 mps 746 mmHg 80%
    15:00 +6°C° 1.1 mm 15 mps 750 mmHg 79%
    16:00 +6°C° 0.1 mm 14 mps 753 mmHg 74%
    17:00 +7°C° 0.1 mm 13 mps 756 mmHg 70%
    18:00 +7°C° 0.1 mm 11 mps 759 mmHg 66%
    19:00 +7°C° 0 mm 11 mps 760 mmHg 64%
    20:00 +7°C° 0 mm 10 mps 762 mmHg 63%
    21:00 +6°C° 0 mm 9 mps 764 mmHg 61%
    22:00 +6°C° 0 mm 9 mps 765 mmHg 61%
    23:00 +6°C° 0 mm 8 mps 767 mmHg 61%

    24 September, Monday

    Time Temperature Precipitation Wind Pressure Humidity
    00:00 +5°C° 0 mm 8 mps 768 mmHg 62%
    01:00 +5°C° 0 mm 7 mps 769 mmHg 63%
    02:00 +5°C° 0 mm 7 mps 769 mmHg 64%
    03:00 +5°C° 0 mm 7 mps 770 mmHg 65%
    04:00 +4°C° 0 mm 6 mps 771 mmHg 66%
    05:00 +4°C° 0 mm 6 mps 772 mmHg 67%
    06:00 +5°C° 0 mm 5 mps 772 mmHg 69%
    07:00 +6°C° 0 mm 5 mps 773 mmHg 66%
    08:00 +7°C° 0 mm 5 mps 774 mmHg 64%
    09:00 +8°C° 0 mm 5 mps 774 mmHg 61%
    10:00 +9°C° 0 mm 5 mps 775 mmHg 58%
    11:00 +10°C° 0 mm 5 mps 775 mmHg 55%
    12:00 +12°C° 0 mm 4 mps 775 mmHg 52%
    13:00 +12°C° 0 mm 4 mps 775 mmHg 55%
    14:00 +12°C° 0 mm 4 mps 775 mmHg 57%
    15:00 +12°C° 0 mm 4 mps 775 mmHg 59%
    16:00 +11°C° 0 mm 3 mps 775 mmHg 65%
    17:00 +10°C° 0 mm 3 mps 775 mmHg 71%
    18:00 +9°C° 0 mm 2 mps 775 mmHg 77%
    19:00 +9°C° 0 mm 2 mps 775 mmHg 79%
    20:00 +8°C° 0 mm 2 mps 775 mmHg 81%
    21:00 +8°C° 0 mm 2 mps 776 mmHg 82%
    22:00 +7°C° 0 mm 2 mps 775 mmHg 82%
    23:00 +7°C° 0 mm 2 mps 775 mmHg 82%
    Show more